sat.trackr.live / text

‹ back to catalog

STARLINK-34810

NORAD 65068 · 2025-165N

PAYLOAD ACTIVE UNKNOWN

§ Identity

Operator
Country
US
Launch date
2025-07-31
Launch site
AFWTR
Launch vehicle
Mass (kg)
RCS (m²)

Purposes: comms

External: N2YO · Heavens-Above · Gunter

§ Orbital elements

Epoch: 2026-09-20T00:00:02.999808Z

Period
93.91 min
Inclination
97.2859°
Eccentricity
0.0001194
Mean motion
15.33437560 rev/d
Perigee alt
464.7 km
Apogee alt
466.4 km
Semi-major
6,843.7 km
B*
8.4522e-4
RAAN
334.1706°
Arg perigee
84.8074°
Mean anomaly
323.8611°
Rev number
580

§ Raw data

STARLINK-348101 65068U 25165N   26263.00003472  .00027304  00000+0  84522-3 0  99982 65068  97.2859 334.1706 0001194  84.8074 323.8611 15.33437560  5801

JSON: /api/v1/satellites/65068 · /tle

For live sub-satellite position, see the globe view (requires WebGL).

§ Visibility from observer

Set your observer location to see the next 7 days of passes ≥ 10°. The values pass through the URL so the page stays shareable.

No JS? Fill the form by hand. The geolocation button needs JavaScript.